| time (UTC) | temp C | wind direction | speed KPH | gust KPH | rain 1hr cm | rain 24hr cm | rain mn cm | humidity % | barometer mb |
| 20260505041600 | 10 | 199 | 12.9 | 29.0 | 0.00 | 0.00 | 0.00 | 91 | 1012.5 |
| 20260505041038 | 10 | 192 | 12.9 | 25.7 | 0.00 | 0.00 | 0.00 | 91 | 1012.5 |
| 20260505040537 | 10 | 144 | 14.5 | 32.2 | 0.00 | 0.00 | 0.00 | 91 | 1012.5 |
| 20260505040050 | 10 | 198 | 12.9 | 32.2 | 0.00 | 0.00 | 0.00 | 91 | 1012.5 |
| 20260505035537 | 10 | 184 | 11.3 | 27.4 | 0.00 | 0.00 | 0.00 | 91 | 1012.5 |
| 20260505035040 | 10 | 165 | 12.9 | 30.6 | 0.00 | 0.00 | 0.00 | 91 | 1012.5 |
| 20260505034546 | 10 | 214 | 12.9 | 30.6 | 0.00 | 0.00 | 0.00 | 91 | 1012.5 |
| 20260505034036 | 10 | 205 | 12.9 | 27.4 | 0.00 | 0.00 | 0.00 | 91 | 1012.5 |
| 20260505033537 | 10 | 172 | 12.9 | 27.4 | 0.00 | 0.00 | 0.00 | 91 | 1012.4 |
| 20260505033045 | 10 | 201 | 12.9 | 27.4 | 0.00 | 0.00 | 0.00 | 91 | 1012.5 |
| 20260505032536 | 10 | 158 | 12.9 | 29.0 | 0.00 | 0.00 | 0.00 | 91 | 1012.4 |
| 20260505032038 | 10 | 182 | 11.3 | 29.0 | 0.00 | 0.00 | 0.00 | 91 | 1012.4 |
| 20260505031543 | 10 | 213 | 12.9 | 27.4 | 0.00 | 0.00 | 0.00 | 91 | 1012.6 |
| 20260505031037 | 10 | 209 | 12.9 | 27.4 | 0.00 | 0.00 | 0.00 | 90 | 1012.5 |
| 20260505030540 | 10 | 203 | 12.9 | 29.0 | 0.00 | 0.00 | 0.00 | 90 | 1012.7 |
| 20260505030055 | 10 | 174 | 14.5 | 29.0 | 0.00 | 0.00 | 0.00 | 90 | 1012.6 |
| 20260505025538 | 10 | 202 | 12.9 | 29.0 | 0.00 | 0.00 | 0.00 | 90 | 1012.6 |
| 20260505025038 | 10 | 188 | 12.9 | 29.0 | 0.00 | 0.00 | 0.00 | 90 | 1012.6 |
| 20260505024547 | 10 | 229 | 11.3 | 32.2 | 0.00 | 0.00 | 0.00 | 90 | 1012.7 |
| 20260505024038 | 10 | 200 | 14.5 | 32.2 | 0.00 | 0.00 | 0.00 | 90 | 1012.6 |
| 20260505023537 | 10 | 209 | 14.5 | 33.8 | 0.00 | 0.00 | 0.00 | 90 | 1012.5 |
| 20260505023053 | 10 | 183 | 14.5 | 33.8 | 0.00 | 0.00 | 0.00 | 90 | 1012.6 |
| 20260505022537 | 10 | 167 | 12.9 | 27.4 | 0.00 | 0.00 | 0.00 | 90 | 1012.6 |
| 20260505022038 | 10 | 204 | 14.5 | 27.4 | 0.00 | 0.00 | 0.00 | 90 | 1012.5 |
| 20260505021552 | 10 | 211 | 14.5 | 30.6 | 0.00 | 0.00 | 0.00 | 90 | 1012.6 |
| 20260505021037 | 10 | 189 | 11.3 | 30.6 | 0.00 | 0.00 | 0.00 | 90 | 1012.7 |
| 20260505020539 | 10 | 167 | 12.9 | 29.0 | 0.00 | 0.00 | 0.00 | 90 | 1012.6 |
| 20260505020053 | 10 | 201 | 12.9 | 25.7 | 0.00 | 0.00 | 0.00 | 90 | 1012.6 |
| 20260505015537 | 10 | 216 | 12.9 | 25.7 | 0.00 | 0.00 | 0.00 | 90 | 1012.6 |
| 20260505015037 | 10 | 204 | 11.3 | 29.0 | 0.00 | 0.00 | 0.00 | 90 | 1012.5 |
| 20260505014545 | 10 | 192 | 12.9 | 29.0 | 0.00 | 0.00 | 0.00 | 90 | 1012.5 |
| 20260505014036 | 10 | 206 | 9.7 | 29.0 | 0.00 | 0.00 | 0.00 | 90 | 1012.5 |
| 20260505013538 | 10 | 182 | 11.3 | 29.0 | 0.00 | 0.00 | 0.00 | 90 | 1012.6 |
| 20260505013043 | 10 | 202 | 11.3 | 22.5 | 0.00 | 0.00 | 0.00 | 89 | 1012.6 |
| 20260505012538 | 10 | 198 | 11.3 | 24.1 | 0.00 | 0.00 | 0.00 | 89 | 1012.4 |
| 20260505012038 | 10 | 210 | 8.0 | 25.7 | 0.00 | 0.00 | 0.00 | 88 | 1012.4 |
| 20260505011547 | 10 | 225 | 11.3 | 25.7 | 0.00 | 0.00 | 0.00 | 88 | 1012.4 |
| 20260505011037 | 10 | 249 | 8.0 | 22.5 | 0.00 | 0.00 | 0.00 | 88 | 1012.3 |
| 20260505010539 | 10 | 217 | 9.7 | 22.5 | 0.00 | 0.00 | 0.00 | 88 | 1012.2 |
| 20260505010103 | 10 | 186 | 8.0 | 29.0 | 0.00 | 0.00 | 0.00 | 87 | 1012.0 |
| 20260505005535 | 10 | 265 | 11.3 | 30.6 | 0.00 | 0.00 | 0.00 | 87 | 1012.0 |
| 20260505005040 | 10 | 209 | 9.7 | 30.6 | 0.00 | 0.00 | 0.00 | 87 | 1011.9 |
| 20260505004547 | 10 | 169 | 11.3 | 29.0 | 0.00 | 0.00 | 0.00 | 86 | 1011.6 |
| 20260505004038 | 10 | 252 | 12.9 | 30.6 | 0.00 | 0.00 | 0.00 | 86 | 1011.5 |
| 20260505003537 | 10 | 293 | 12.9 | 30.6 | 0.00 | 0.00 | 0.00 | 86 | 1011.5 |
| 20260505003050 | 10 | 169 | 11.3 | 37.0 | 0.00 | 0.00 | 0.00 | 86 | 1011.4 |
| 20260505002537 | 10 | 219 | 14.5 | 37.0 | 0.00 | 0.00 | 0.00 | 86 | 1011.4 |
| 20260505002037 | 10 | 191 | 14.5 | 30.6 | 0.00 | 0.00 | 0.00 | 85 | 1011.2 |
| 20260505001545 | 10 | 202 | 12.9 | 37.0 | 0.00 | 0.00 | 0.00 | 85 | 1011.2 |
| 20260505001036 | 10 | 218 | 14.5 | 37.0 | 0.00 | 0.00 | 0.00 | 84 | 1011.1 |
| 20260505000536 | 10 | 227 | 12.9 | 32.2 | 0.00 | 0.00 | 0.00 | 84 | 1011.1 |
| 20260505000051 | 10 | 167 | 9.7 | 27.4 | 0.00 | 0.00 | 0.00 | 83 | 1011.1 |
| 20260504235540 | 10 | 192 | 16.1 | 33.8 | 0.00 | 0.00 | 0.00 | 83 | 1011.0 |
| 20260504235036 | 10 | 200 | 11.3 | 33.8 | 0.00 | 0.00 | 0.00 | 82 | 1011.0 |
| 20260504234542 | 10 | 161 | 14.5 | 30.6 | 0.00 | 0.00 | 0.00 | 82 | 1011.1 |
| 20260504234035 | 10 | 190 | 16.1 | 30.6 | 0.00 | 0.00 | 0.00 | 82 | 1011.0 |
| 20260504233534 | 10 | 196 | 17.7 | 30.6 | 0.00 | 0.00 | 0.00 | 81 | 1010.9 |
| 20260504233052 | 11 | 192 | 14.5 | 33.8 | 0.00 | 0.00 | 0.00 | 81 | 1010.9 |
| 20260504232538 | 11 | 200 | 14.5 | 35.4 | 0.00 | 0.00 | 0.00 | 80 | 1010.9 |
| 20260504232038 | 11 | 198 | 14.5 | 35.4 | 0.00 | 0.00 | 0.00 | 80 | 1010.9 |
| 20260504231547 | 11 | 180 | 16.1 | 32.2 | 0.00 | 0.00 | 0.00 | 80 | 1010.8 |
| 20260504231038 | 11 | 194 | 12.9 | 32.2 | 0.00 | 0.00 | 0.00 | 79 | 1010.9 |
| 20260504230537 | 11 | 199 | 14.5 | 32.2 | 0.00 | 0.00 | 0.00 | 79 | 1010.9 |
| 20260504230104 | 11 | 193 | 12.9 | 25.7 | 0.00 | 0.00 | 0.00 | 79 | 1010.8 |
| 20260504225543 | 11 | 204 | 12.9 | 33.8 | 0.00 | 0.00 | 0.00 | 79 | 1010.9 |
| 20260504225039 | 11 | 184 | 14.5 | 33.8 | 0.00 | 0.00 | 0.00 | 79 | 1010.9 |
| 20260504224558 | 11 | 165 | 12.9 | 30.6 | 0.00 | 0.00 | 0.00 | 79 | 1010.9 |
| 20260504224038 | 11 | 196 | 11.3 | 33.8 | 0.00 | 0.00 | 0.00 | 79 | 1010.8 |
| 20260504223539 | 11 | 189 | 12.9 | 33.8 | 0.00 | 0.00 | 0.00 | 79 | 1010.9 |
| 20260504223040 | 11 | 226 | 12.9 | 33.8 | 0.00 | 0.00 | 0.00 | 78 | 1010.9 |
| 20260504222538 | 11 | 195 | 17.7 | 30.6 | 0.00 | 0.00 | 0.00 | 78 | 1010.9 |
| 20260504222036 | 11 | 192 | 14.5 | 32.2 | 0.00 | 0.00 | 0.00 | 78 | 1010.9 |
| 20260504221542 | 11 | 299 | 11.3 | 33.8 | 0.00 | 0.00 | 0.00 | 78 | 1010.9 |
| 20260504221035 | 11 | 227 | 12.9 | 40.2 | 0.00 | 0.00 | 0.00 | 78 | 1011.0 |
| 20260504220537 | 11 | 236 | 19.3 | 40.2 | 0.00 | 0.00 | 0.00 | 78 | 1011.0 |
| 20260504220051 | 11 | 194 | 19.3 | 35.4 | 0.00 | 0.00 | 0.00 | 78 | 1010.9 |
| 20260504215536 | 11 | 235 | 17.7 | 37.0 | 0.00 | 0.00 | 0.00 | 77 | 1010.9 |
| 20260504215040 | 12 | 195 | 14.5 | 37.0 | 0.00 | 0.00 | 0.00 | 77 | 1011.0 |
| 20260504214547 | 12 | 336 | 12.9 | 33.8 | 0.00 | 0.00 | 0.00 | 77 | 1010.9 |
| 20260504214037 | 12 | 225 | 16.1 | 33.8 | 0.00 | 0.00 | 0.00 | 76 | 1010.9 |
| 20260504213536 | 12 | 175 | 12.9 | 32.2 | 0.00 | 0.00 | 0.00 | 75 | 1010.9 |
| 20260504213043 | 12 | 259 | 11.3 | 32.2 | 0.00 | 0.00 | 0.00 | 76 | 1011.0 |
| 20260504212535 | 12 | 169 | 11.3 | 29.0 | 0.00 | 0.00 | 0.00 | 76 | 1011.1 |
| 20260504212040 | 12 | 204 | 12.9 | 29.0 | 0.00 | 0.00 | 0.00 | 76 | 1011.1 |
| 20260504211542 | 12 | 187 | 11.3 | 29.0 | 0.00 | 0.00 | 0.00 | 76 | 1011.1 |
| 20260504211037 | 12 | 236 | 9.7 | 37.0 | 0.00 | 0.00 | 0.00 | 76 | 1011.2 |
| 20260504210540 | 12 | 187 | 12.9 | 37.0 | 0.00 | 0.00 | 0.00 | 76 | 1011.1 |
| 20260504210054 | 12 | 222 | 12.9 | 29.0 | 0.00 | 0.00 | 0.00 | 76 | 1011.1 |
| 20260504205536 | 12 | 167 | 12.9 | 29.0 | 0.00 | 0.00 | 0.00 | 75 | 1011.0 |
| 20260504205035 | 12 | 209 | 11.3 | 25.7 | 0.00 | 0.00 | 0.00 | 76 | 1011.0 |
| 20260504204551 | 12 | 164 | 11.3 | 35.4 | 0.00 | 0.00 | 0.00 | 76 | 1011.0 |
| 20260504204038 | 12 | 175 | 14.5 | 37.0 | 0.00 | 0.00 | 0.00 | 75 | 1010.9 |
| 20260504203538 | 12 | 187 | 11.3 | 37.0 | 0.00 | 0.00 | 0.00 | 76 | 1011.0 |
| 20260504203047 | 12 | 68 | 12.9 | 37.0 | 0.00 | 0.00 | 0.00 | 76 | 1010.9 |
| 20260504202537 | 12 | 216 | 14.5 | 37.0 | 0.00 | 0.00 | 0.00 | 75 | 1010.8 |
| 20260504202037 | 12 | 227 | 11.3 | 29.0 | 0.00 | 0.00 | 0.00 | 76 | 1010.9 |
| 20260504201548 | 12 | 161 | 11.3 | 40.2 | 0.00 | 0.00 | 0.00 | 76 | 1011.1 |
| 20260504201037 | 12 | 190 | 9.7 | 40.2 | 0.00 | 0.00 | 0.00 | 78 | 1011.1 |
| 20260504200537 | 12 | 196 | 14.5 | 32.2 | 0.00 | 0.00 | 0.00 | 77 | 1011.0 |
| 20260504200052 | 12 | 187 | 12.9 | 32.2 | 0.00 | 0.00 | 0.00 | 76 | 1011.0 |
| 20260504195538 | 12 | 196 | 14.5 | 32.2 | 0.00 | 0.00 | 0.00 | 76 | 1011.0 |
| 20260504195036 | 12 | 279 | 9.7 | 32.2 | 0.00 | 0.00 | 0.00 | 77 | 1010.9 |
| 20260504194541 | 12 | 196 | 11.3 | 32.2 | 0.00 | 0.00 | 0.00 | 77 | 1011.0 |
| 20260504194038 | 12 | 9 | 12.9 | 30.6 | 0.00 | 0.00 | 0.00 | 76 | 1011.0 |
| 20260504193537 | 12 | 223 | 11.3 | 27.4 | 0.00 | 0.00 | 0.00 | 77 | 1011.1 |
| 20260504193050 | 12 | 300 | 14.5 | 33.8 | 0.00 | 0.00 | 0.00 | 76 | 1011.2 |
| 20260504192537 | 12 | 260 | 14.5 | 33.8 | 0.00 | 0.00 | 0.00 | 76 | 1011.2 |
| 20260504192038 | 12 | 178 | 12.9 | 32.2 | 0.00 | 0.00 | 0.00 | 76 | 1011.2 |
| 20260504191604 | 12 | 214 | 12.9 | 33.8 | 0.00 | 0.00 | 0.00 | 76 | 1011.3 |
| 20260504191039 | 12 | 335 | 16.1 | 33.8 | 0.00 | 0.00 | 0.00 | 74 | 1011.4 |
| 20260504190536 | 13 | 165 | 6.4 | 25.7 | 0.00 | 0.00 | 0.00 | 76 | 1011.3 |
| 20260504190047 | 12 | 213 | 12.9 | 32.2 | 0.00 | 0.00 | 0.00 | 76 | 1011.3 |
| 20260504185537 | 12 | 222 | 14.5 | 33.8 | 0.00 | 0.00 | 0.00 | 76 | 1011.4 |
| 20260504185037 | 12 | 167 | 12.9 | 33.8 | 0.00 | 0.00 | 0.00 | 76 | 1011.4 |
| 20260504184543 | 12 | 222 | 14.5 | 33.8 | 0.00 | 0.00 | 0.00 | 76 | 1011.5 |
| 20260504184037 | 12 | 240 | 12.9 | 30.6 | 0.00 | 0.00 | 0.00 | 77 | 1011.4 |
| 20260504183537 | 12 | 197 | 14.5 | 30.6 | 0.00 | 0.00 | 0.00 | 77 | 1011.5 |
| 20260504183043 | 12 | 146 | 12.9 | 30.6 | 0.00 | 0.00 | 0.00 | 78 | 1011.6 |
| 20260504182537 | 12 | 238 | 12.9 | 30.6 | 0.00 | 0.00 | 0.00 | 79 | 1011.5 |
| 20260504182036 | 12 | 157 | 14.5 | 27.4 | 0.00 | 0.00 | 0.00 | 79 | 1011.5 |
| 20260504181546 | 12 | 286 | 11.3 | 27.4 | 0.00 | 0.00 | 0.00 | 80 | 1011.7 |
| 20260504181036 | 12 | 214 | 11.3 | 37.0 | 0.00 | 0.00 | 0.00 | 79 | 1011.7 |
| 20260504180538 | 12 | 240 | 11.3 | 37.0 | 0.00 | 0.00 | 0.00 | 81 | 1011.7 |
| 20260504180047 | 12 | 191 | 11.3 | 27.4 | 0.00 | 0.00 | 0.00 | 81 | 1011.8 |
| 20260504175537 | 12 | 257 | 11.3 | 33.8 | 0.00 | 0.00 | 0.00 | 81 | 1011.9 |
| 20260504175038 | 12 | 223 | 11.3 | 37.0 | 0.00 | 0.00 | 0.00 | 81 | 1011.8 |
| 20260504174551 | 12 | 268 | 14.5 | 37.0 | 0.00 | 0.00 | 0.00 | 81 | 1011.9 |
| 20260504174037 | 12 | 268 | 12.9 | 30.6 | 0.00 | 0.00 | 0.00 | 82 | 1011.9 |
| 20260504173537 | 12 | 192 | 14.5 | 30.6 | 0.00 | 0.00 | 0.00 | 82 | 1011.9 |
| 20260504173049 | 12 | 270 | 11.3 | 27.4 | 0.00 | 0.00 | 0.00 | 82 | 1012.1 |
| 20260504172535 | 12 | 219 | 12.9 | 29.0 | 0.00 | 0.00 | 0.00 | 81 | 1012.2 |
| 20260504172034 | 12 | 200 | 12.9 | 29.0 | 0.00 | 0.00 | 0.00 | 82 | 1012.2 |
| 20260504171542 | 12 | 241 | 12.9 | 30.6 | 0.00 | 0.00 | 0.00 | 82 | 1012.2 |
| 20260504171034 | 12 | 194 | 14.5 | 30.6 | 0.00 | 0.00 | 0.00 | 82 | 1012.1 |
| 20260504170535 | 12 | 199 | 14.5 | 30.6 | 0.00 | 0.00 | 0.00 | 81 | 1012.1 |
| 20260504151037 | 12 | 253 | 14.5 | 35.4 | 0.00 | 0.00 | 0.00 | 78 | 1012.7 |
| 20260504150536 | 12 | 243 | 11.3 | 35.4 | 0.00 | 0.00 | 0.00 | 78 | 1012.6 |
| 20260504141037 | 11 | 199 | 14.5 | 27.4 | 0.00 | 0.00 | 0.00 | 79 | 1013.1 |
| 20260504140537 | 11 | 254 | 14.5 | 29.0 | 0.00 | 0.00 | 0.00 | 79 | 1013.1 |
| 20260504130537 | 11 | 266 | 9.7 | 25.7 | 0.00 | 0.00 | 0.00 | 79 | 1013.2 |
| 20260504110537 | 9 | 210 | 11.3 | 27.4 | 0.00 | 0.00 | 0.00 | 85 | 1013.1 |
| 20260504100536 | 9 | 271 | 12.9 | 25.7 | 0.00 | 0.00 | 0.00 | 77 | 1012.6 |
| 20260504081552 | 7 | 265 | 3.2 | 11.3 | 0.00 | 0.00 | 0.00 | 89 | 1012.2 |
| 20260504081038 | 8 | 190 | 3.2 | 11.3 | 0.00 | 0.00 | 0.00 | 89 | 1012.2 |
| 20260504080537 | 7 | 193 | 1.6 | 11.3 | 0.00 | 0.00 | 0.00 | 90 | 1012.1 |
| 20260504050536 | 8 | 264 | 6.4 | 16.1 | 0.00 | 0.00 | 0.00 | 87 | 1011.5 |
| 20260504045535 | 7 | 221 | 4.8 | 12.9 | 0.00 | 0.00 | 0.00 | 87 | 1011.6 |
| 20260504045038 | 7 | 184 | 4.8 | 12.9 | 0.00 | 0.00 | 0.00 | 87 | 1011.6 |
| 20260504044544 | 7 | 284 | 4.8 | 12.9 | 0.00 | 0.00 | 0.00 | 87 | 1011.7 |
| 20260504044036 | 8 | 227 | 6.4 | 16.1 | 0.00 | 0.00 | 0.00 | 87 | 1011.7 |
| 20260504043538 | 8 | 183 | 6.4 | 17.7 | 0.00 | 0.00 | 0.00 | 87 | 1011.7 |
| 20260504043102 | 8 | 219 | 4.8 | 17.7 | 0.00 | 0.00 | 0.00 | 87 | 1011.8 |